CW8896 Weather Reports


time (UTC)temp
F
wind
direction
speed
knots
gust
knots
rain 1hr
in
rain 24hr
in
rain mn
in
humidity
%
barometer
mb
20260506154004 70 318 1.7 9.6 0.00 0.32 0.10 46 1008.4
20260506153004 70 312 1.7 7.8 0.00 0.32 0.10 46 1008.3
20260506152003 70 312 1.7 8.7 0.00 0.32 0.10 48 1008.4
20260506151004 70 310 0.9 5.2 0.00 0.32 0.10 48 1008.4
20260506150004 71 5 0.9 5.2 0.00 0.32 0.10 47 1008.3
20260506145004 72 330 0.9 6.1 0.00 0.32 0.10 42 1008.4
20260506144003 72 309 0.9 4.3 0.00 0.32 0.10 46 1008.4
20260506143005 72 342 0.9 3.5 0.00 0.32 0.10 45 1008.5
20260506142004 72 207 0.9 3.5 0.00 0.32 0.10 45 1008.5
20260506140005 71 307 0.9 8.7 0.00 0.32 0.10 48 1008.6
20260506135004 72 297 0.9 7.8 0.00 0.32 0.10 46 1008.8
20260506134004 72 301 0.9 7.8 0.00 0.32 0.10 41 1008.9
20260506133004 72 297 0.9 4.3 0.00 0.32 0.10 46 1008.8
20260506132005 71 301 0.9 3.5 0.00 0.32 0.10 44 1008.8
20260506131003 70 319 1.7 8.7 0.00 0.32 0.10 46 1008.9
20260506130005 68 317 1.7 7.8 0.00 0.32 0.10 52 1008.9
20260506124004 72 248 0.9 5.2 0.00 0.32 0.10 46 1009.0
20260506123004 71 300 0.9 6.1 0.00 0.32 0.10 49 1009.1
20260506122004 70 331 0.9 3.5 0.00 0.32 0.10 50 1009.2
20260506121003 69 312 0.9 4.3 0.00 0.32 0.10 52 1009.2
20260506115004 70 321 1.7 8.7 0.00 0.32 0.10 49 1009.2
20260506113004 69 311 1.7 6.1 0.00 0.32 0.10 53 1009.3
20260506112004 70 314 0.9 5.2 0.00 0.32 0.10 51 1009.3
20260506110004 67 321 1.7 6.1 0.00 0.32 0.10 55 1009.4
20260506105004 67 322 1.7 7.0 0.00 0.32 0.10 53 1009.6
20260506104004 65 311 1.7 5.2 0.00 0.32 0.10 56 1009.7
20260506103004 67 315 2.6 7.0 0.00 0.32 0.10 53 1009.8
20260506102004 67 310 1.7 5.2 0.00 0.32 0.10 56 1009.6
20260506101003 67 315 1.7 7.8 0.00 0.32 0.10 59 1009.6
20260506100004 66 309 1.7 9.6 0.00 0.32 0.10 59 1009.7
20260506095003 66 330 2.6 11.3 0.00 0.32 0.10 62 1009.7
20260506093004 66 315 1.7 10.4 0.00 0.32 0.10 62 1009.4
20260506092003 65 313 2.6 8.7 0.00 0.32 0.10 62 1009.5
20260506090005 66 299 0.9 4.3 0.00 0.32 0.10 64 1009.4
20260506085003 65 301 0.9 5.2 0.00 0.32 0.10 66 1009.5
20260506084004 64 314 0.9 5.2 0.00 0.32 0.10 67 1009.6
20260506083004 64 347 0.0 2.6 0.00 0.32 0.10 71 1009.5
20260506072004 61 13 0.0 3.5 0.00 0.32 0.10 78 1009.3
20260506071003 62 82 0.0 1.7 0.00 0.32 0.10 79 1009.3
20260506062003 58 45 0.0 0.9 0.00 0.32 0.10 87 1008.9
20260506051004 49 0 0.0 0.0 0.00 0.32 0.10 95 1008.3
20260506045004 49 322 0.0 0.9 0.00 0.32 0.10 95 1008.0
20260506044003 48 0 0.0 0.0 0.00 0.32 0.10 95 1008.0
20260506041004 49 336 0.0 0.9 0.00 0.32 0.10 95 1008.0
20260506040004 49 0 0.0 0.0 0.00 0.32 0.10 95 1008.0
20260506035003 49 0 0.0 0.0 0.00 0.32 0.10 95 1008.0
20260506034004 49 331 0.0 0.9 0.00 0.32 0.10 95 1007.9
20260506033005 49 0 0.0 0.0 0.00 0.32 0.10 95 1008.0
20260506032004 49 320 0.0 1.7 0.00 0.32 0.10 95 1008.1
20260506031003 49 0 0.0 0.0 0.00 0.32 0.10 95 1008.1
20260506030006 49 0 0.0 0.0 0.00 0.33 0.10 95 1008.1
20260506025003 49 0 0.0 0.0 0.00 0.35 0.10 95 1008.0
20260506024004 49 0 0.0 0.0 0.00 0.39 0.10 95 1008.0
20260506023004 50 0 0.0 0.0 0.00 0.40 0.10 95 1008.1
20260506022004 50 0 0.0 0.0 0.00 0.41 0.10 95 1008.0
20260506020004 50 0 0.0 0.0 0.00 0.42 0.10 95 1008.0
20260506015004 50 0 0.0 0.0 0.00 0.42 0.10 95 1008.2
20260506014004 50 0 0.0 0.0 0.00 0.43 0.10 95 1008.2
20260506013005 49 0 0.0 0.0 0.00 0.43 0.10 95 1008.3
20260506012003 49 0 0.0 0.0 0.00 0.43 0.10 95 1008.2
20260506011004 50 0 0.0 0.0 0.00 0.43 0.10 94 1008.1
20260506010004 50 302 0.0 0.9 0.00 0.43 0.10 94 1008.3
20260506005004 50 0 0.0 0.0 0.00 0.43 0.10 94 1008.2
20260506004004 50 0 0.0 0.0 0.00 0.43 0.10 94 1008.2
20260506003004 51 0 0.0 0.0 0.00 0.44 0.10 94 1008.2
20260506002003 51 0 0.0 0.0 0.00 0.44 0.10 94 1008.3
20260506000004 51 323 0.0 0.9 0.00 0.44 0.10 94 1008.8
20260505235004 52 350 0.0 1.7 0.01 0.44 0.10 94 1008.6
20260505234003 52 309 0.0 0.9 0.01 0.44 0.10 94 1009.0
20260505233005 52 272 0.0 0.9 0.02 0.44 0.10 94 1009.1
20260505232003 52 293 0.0 0.9 0.03 0.44 0.10 94 1009.0
20260505230004 52 330 0.0 0.9 0.10 0.44 0.10 94 1009.1
20260505225004 52 10 0.0 1.7 0.12 0.43 0.09 94 1008.9
20260505224004 52 310 0.0 1.7 0.14 0.43 0.09 94 1009.5
20260505223005 52 226 0.0 1.7 0.15 0.43 0.09 93 1009.9
20260505222003 53 0 0.0 0.0 0.15 0.42 0.07 93 1010.1
20260505221003 53 0 0.0 0.0 0.13 0.39 0.04 93 1010.2
20260505215003 53 0 0.0 0.0 0.07 0.35 0.34 92 1010.1
20260505214004 53 302 0.0 0.9 0.06 0.34 0.31 92 1010.1
20260505213004 53 297 0.0 1.7 0.05 0.42 0.30 91 1010.1
20260505211003 53 317 0.9 6.1 0.04 0.44 0.28 91 1009.9
20260505210004 53 301 0.9 3.5 0.06 0.44 0.28 91 1010.0
20260505205004 53 308 0.9 3.5 0.07 0.43 0.27 91 1010.1
20260505204005 53 306 0.9 4.3 0.07 0.43 0.26 91 1010.1
20260505203004 53 311 0.9 2.6 0.07 0.43 0.25 91 1009.8
20260505202004 54 319 0.9 2.6 0.06 0.42 0.24 90 1009.9
20260505201003 54 310 0.9 1.7 0.05 0.40 0.23 89 1010.0
20260505200005 55 317 0.9 4.3 0.03 0.41 0.21 88 1010.0
20260505194004 56 317 1.7 5.2 0.03 0.45 0.19 85 1009.7
20260505193004 57 313 1.7 6.1 0.02 0.44 0.18 86 1009.7
20260505192004 58 327 0.0 1.7 0.02 0.46 0.18 89 1009.4
20260505190004 59 0 0.0 0.0 0.02 0.49 0.18 89 1009.1
20260505185004 59 0 0.0 0.0 0.02 0.52 0.18 87 1009.1
20260505182004 60 190 0.0 2.6 0.00 0.63 0.16 85 1008.9
20260505181004 60 317 0.0 1.7 0.00 0.75 0.16 85 1008.9
20260505180004 60 225 0.0 1.7 0.00 0.79 0.16 86 1009.1
20260505175003 60 200 0.0 0.9 0.00 0.83 0.16 87 1009.0
20260505174004 60 209 0.0 1.7 0.00 0.86 0.16 87 1009.0
20260505172004 60 175 0.0 0.9 0.01 0.96 0.16 86 1008.7
20260505171003 60 224 0.0 0.9 0.02 1.00 0.16 88 1008.8
20260505170005 60 337 0.0 0.9 0.02 1.12 0.16 88 1008.6
20260505165003 60 17 0.0 0.9 0.02 1.18 0.16 86 1008.3
20260505163004 60 201 0.0 2.6 0.01 1.31 0.15 84 1008.9
20260505162003 61 219 0.9 7.0 0.01 1.35 0.15 83 1009.0
20260505161003 63 209 1.7 7.8 0.00 1.48 0.14 78 1008.9